681  
ASUS44 KMOB 140611  
RWRMOB  
REGIONAL WEATHER ROUNDUP  
NATIONAL WEATHER SERVICE MOBILE AL  
100 AM CDT FRI JUN 14 2024  
 
NOTE: "FAIR" INDICATES FEW OR NO CLOUDS BELOW 12,000 FEET WITH NO  
SIGNIFICANT WEATHER AND/OR S TO VISIBILITY
.  
 
* THESE STATIONS ARE PART OF THE UNIVERSITY OF SOUTH ALABAMA  
MESONET AND ARE NOT UNDER NWS OR FAA QUALITY CONTROL.
 
 
ALZ061>064-140700-  
COASTAL ALABAMA  
 
CITY SKY/WX TMP DP RH WIND PRES REMARKS
 
MOBILE REG APT CLEAR 74 70 87 CALM 29.91F  
6HR MIN TEMP: 73; 6HR MAX TEMP: 89;  
 
BROOKLEY FIELD CLEAR 74 68 81 W3 29.92S  
6HR MIN TEMP: 74; 6HR MAX TEMP: 90;  
 
USA CAMPUS* N/A 73 70 88 CALM 29.93F  
DOG RIVER* N/A 75 72 88 CALM 29.91F  
 
 
CITY SKY/WX TMP DP RH WIND PRES REMARKS
 
GULF SHORES CLEAR 75 70 83 CALM 29.89F  
 

 
 
ALZ051>060-140700-  
INTERIOR SOUTHWEST AND SOUTH CENTRAL ALABAMA  
 
CITY SKY/WX TMP DP RH WIND PRES REMARKS
 
GREENVILLE PTCLDY 75 71 87 CALM 29.92S  
6HR MIN TEMP: 75; 6HR MAX TEMP: 88;  
 
EVERGREEN CLEAR 71 68 90 CALM 29.91F  
6HR MIN TEMP: 71; 6HR MAX TEMP: 87;  
 
ATMORE* N/A 73 66 78 CALM 29.92F  
ANDALUSIA/OPP CLEAR 76 71 85 CALM 29.91F  
6HR MIN TEMP: 76; 6HR MAX TEMP: 89;  
 
ANDALUSIA* N/A 75 72 88 CALM 29.92S  
FLORALA APT CLEAR 74 69 85 CALM 29.92F  
6HR MIN TEMP: 74; 6HR MAX TEMP: 89;  
 
FLORALA* N/A 73 72 94 CALM 29.95F  
 

 
 
FLZ001>006-140700-  
WESTERN FLORIDA PANHANDLE  
 
CITY SKY/WX TMP DP RH WIND PRES REMARKS
 
PENSACOLA PTCLDY 77 62 59 N7 29.89F  
6HR MIN TEMP: 77; 6HR MAX TEMP: 90;  
 
NAS PENSACOLA NOT AVBL  
MILTON MOCLDY 75 67 76 CALM 29.89F  
6HR MIN TEMP: 75; 6HR MAX TEMP: 87;  
 
WHTNG S FIELD PTCLDY 75 66 73 CALM 29.89F  
6HR MIN TEMP: 74; 6HR MAX TEMP: 88;  
 
 
CITY SKY/WX TMP DP RH WIND PRES REMARKS
 
JAY* N/A 77 64 65 CALM 29.92F  
DUKE FIELD CLOUDY 78 71 78 CALM 29.89F  
CRESTVIEW MOCLDY 77 72 84 CALM 29.92S  
6HR MIN TEMP: 76; 6HR MAX TEMP: 90;  
 
VALPARAISO CLOUDY 82 74 74 CALM 29.89F  
6HR MIN TEMP: 82; 6HR MAX TEMP: 89;  
 
DESTIN CLEAR 80 74 81 CALM 29.89F  
6HR MIN TEMP: 79; 6HR MAX TEMP: 88;  
 

 
 
MSZ076-079-140700-  
INTERIOR SOUTHEAST MISSISSIPPI  
 
CITY SKY/WX TMP DP RH WIND PRES REMARKS
 
LEAKESVILLE* N/A 70 66 88 CALM 29.92  
AGRICOLA* N/A 72 72 100 CALM 29.91  
 

 
 
MARINE OBSERVATIONS  
 
STATION/POSITION TIME TEMP WIND PRES WAVE
 
AIR SEA DIR/SP/G HT/PER  
(UTC) (F) (DEG/KT/KT) (MB) (FT/S)  
PETIT BOIS ISLND 0530 83 320/ 5/ 6 1012.4S  
GRAND BAY 0445 80 340/ 3 1014.0S  
E DAUPHIN ISLAND NOT AVBL  
USCG MOBILE BAY 0530 80 84 320/ 1/ 3 1012.8S  
STATE DOCKS 0530 79 85 1013.7F  
WEEKS BAY 0445 73 CALM 1013.0S  
12 S ORANGE BCH 0550 85 85 10/ 6/ 8 1012.4F 1/ 8  
PENSACOLA BAY 0530 83 10/ 5/ 7 1012.4F  
64 S DAUPHIN ISL 0550 84 360/ 4/ 6 1012.7F 1/ 8  
 

 
 
SELECTED LOCATIONS ACROSS THE REGION  
 
CITY SKY/WX TMP DP RH WIND PRES REMARKS
 
NEW ORLEANS CLOUDY 81 75 82 SW3 29.89F  
GULFPORT CLEAR 78 74 87 CALM 29.89F  
PASCAGOULA AP CLEAR 73 69 87 CALM 29.90F FOG  
PASCAGOULA* N/A 73 72 94 CALM 29.89  
HATTIESBURG CLEAR 72 66 81 CALM 29.92F  
LAUREL CLEAR 69 67 93 CALM 29.93F  
MERIDIAN CLEAR 68 64 87 CALM 29.94R  
JACKSON CLEAR 69 65 86 CALM 29.94R  
MONTGOMERY CLEAR 75 71 87 CALM 29.92F  
TROY CLEAR 73 69 87 CALM 29.93F  
ASHFORD* N/A 75 72 88 CALM 29.92S  
DOTHAN CLEAR 78 65 63 E3 29.94F  
PANAMA CITY FAIR 74 72 93 NW3 29.89F  
 

 
 
 
 
CLICK HERE TO GO TO PREVIOUS BULLETINS.

The Nexlab AL Page
The Nexlab FL Page
The Nexlab MS Page Main Text Page